SCP
0 0 0 0 0 0 0 0 0 0 0 0 0 0 0 0 0 0 0 0 0 0 0 0 0 0 0 0 0 0 0 0 0 0 0 0 0 0 0 0 0 0 0
0 0 0 0 0 0 0 0 0 0 0 0 0 0 0 0 0 0 0 0 0 0 0 0 0 0 0 0 0 0 0 0 0 0 0 0 0 0 0 0 0 0 0
0 0 0 0 0 0 0 0 0 0 0 0 0 0 0 0 0 0 0 0 0 0 0 0 0 0 0 0 0 0 0 0 0 0 0 0 0 0 0 0 0 0 0
0 0 0 0 0 0 0 0 0 0 0 0 0 0 0 0 0 0 0 0 0 0 0 0 0 0 0 0 0 0 0 0 0 0 0 0 0 0 0 0 0 0 0
0 0 0 0 0 0 0 0 0 0 0 0 0 0 0 0 0 0 0 0 0 0 0 0 0 0 0 0 0 0 0 0 0 0 0 0 0 0 0 0 0 0 0
0 0 0 0 0 0 0 0 0 0 0 0 0 0 0 0 0 0 0 0 0 0 0 0 0 0 0 0 0 0 0 0 0 0 0 0 0 0 0 0 0 0 0
0 0 0 0 0 0 0 0 0 0 0 0 0 0 0 0 0 0 0 0 0 0 0 0 0 0 0 0 0 0 0 0 0 0 0 0 0 0 0 0 0 0 0
0 0 0 0 0 0 0 0 0 0 0 0 0 0 0 0 0 0 0 0 0 0 0 0 0 0 0 0 0 0 0 0 0 0 0 0 0 0 0 0 0 0 0
0 0 0 0 0 0 0 0 0 0 0 0 0 0 0 0 0 0 0 0 0 0 0 0 0 0 0 0 0 0 0 0 0 0 0 0 0 0 0 0 0 0 0
0 0 0 0 0 0 0 0 0 0 0 0 0 0 0 0 0 0 0 0 0 0 0 0 0 0 0 0 0 0 0 0 0 0 0 0 0 0 0 0 0 0 0
0 0 0 0 0 0 0 0 0 0 0 0 0 0 0 0 0 0 0 0 0 0 0 0 0 0 0 0 0 0 0 0 0 0 0 0 0 0 0 0 0 0 0
0 0 0 0 0 0 0 0 0 0 0 0 0 0 0 0 0 0 0 0 0 0 0 0 0 0 0 0 0 0 0 0 0 0 0 0 0 0 0 0 0 0 0
0 0 0 0 0 0 0 0 0 0 0 0 0 0 0 0 0 0 0 0 0 0 0 0 0 0 0 0 0 0 0 0 0 0 0 0 0 0 0 0 0 0 0
0 0 0 0 0 0 0 0 0 0 0 0 0 0 0 0 0 0 0 0 0 0 0 0 0 0 0 0 0 0 0 0 0 0 0 0 0 0 0 0 0 0 0
0 0 0 0 0 0 0 0 0 0 0 0 0 0 0 0 0 0 0 0 0 0 0 0 0 0 0 0 0 0 0 0 0 0 0 0 0 0 0 0 0 0 0
0 0 0 0 0 0 0 0 0 0 0 0 0 0 0 0 0 0 0 0 0 0 0 0 0 0 0 0 0 0 0 0 0 0 0 0 0 0 0 0 0 0 0
0 0 0 0 0 0 0 0 0 0 0 0 0 0 0 0 0 0 0 0 0 0 0 0 0 0 0 0 0 0 0 0 0 0 0 0 0 0 0 0 0 0 0
0 0 0 0 0 0 0 0 0 0 0 0 0 0 0 0 0 0 0 0 0 0 0 0 0 0 0 0 0 0 0 0 0 0 0 0 0 0 0 0 0 0 0
0 0 0 0 0 0 0 0 0 0 0 0 0 0 0 0 0 0 0 0 0 0 0 0 0 0 0 0 0 0 0 0 0 0 0 0 0 0 0 0 0 0 0
0 0 0 0 0 0 0 0 0 0 0 0 0 0 0 0 0 0 0 0 0 0 0 0 0 0 0 0 0 0 0 0 0 0 0 0 0 0 0 0 0 0 0
0 0 -0 0 0 0 0 0 0 0 0 0 0 0 0 0 0 0 0 0 0 0 0 0 0 0 0 0 0 0 0 0 0 0 0 0 0 0 0 0 0 0 0
0 0 0 0 0 0 0 0 0 0 0 0 0 0 0 0 0 0 0 0 0 0 0 0 0 0 0 0 0 0 0 0 0 0 0 0 0 0 0 0 0 0 0
0 0 0 0 0 0 0 0 0 0 0 0 0 0 0 0 0 0 0 0 0 0 0 0 0 0 0 0 0 0 0 0 0 0 0 0 0 0 0 0 0 0 0
0 0 0 0 0 0 0 0 0 0 0 0 0 0 0 0 0 0 0 0 0 0 0 0 0 0 0 0 0 0 0 0 0 0 0 0 0 0 0 0 0 0 0
0 0 0 0 0 0 0 0 0 0 0 0 0 0 0 0 0 0 0 0 0 0 0 0 0 0 0 0 0 0 0 0 0 0 0 0 0 0 0 0 0 0 0
0 0 0 0 0 0 0 0 0 0 0 0 0 0 0 0 0 0 0 0 0 0 0 0 0 0 0 0 0 0 0 0 0 0 0 0 0 0 0 0 0 0 0
Wind_Speed
10 10 8 7 8 6 6 5 5 6 5 5 3 3 3 3 3 2 2 4 6 2 4 6 7 8 9 9 10 11 12 13 13 13 13 13 13 13 14 14 14 15 15
11 11 10 9 8 7 6 6 7 6 5 4 4 3 3 4 4 4 3 3 6 5 5 6 7 8 9 9 9 10 11 11 11 11 11 11 11 12 13 14 14 15 15
13 12 10 10 9 8 8 6 7 5 5 5 5 4 4 4 5 5 5 4 5 10 10 9 9 9 9 8 8 9 9 9 9 8 9 8 9 10 11 12 12 13 13
15 12 10 10 10 8 8 7 7 6 5 5 5 4 4 4 5 6 5 5 4 4 8 9 8 7 6 6 6 6 7 7 7 6 7 8 8 8 9 10 10 10 11
17 13 11 10 11 9 8 8 7 6 6 6 5 4 4 4 5 5 6 6 5 4 4 6 8 8 6 5 4 4 5 6 6 6 7 7 7 8 9 9 10 10 10
18 15 11 12 12 10 9 9 9 6 6 7 6 5 4 4 4 5 5 5 4 4 3 3 3 6 7 6 5 5 6 7 8 8 8 8 8 8 9 9 10 10 11
18 16 12 13 13 12 13 13 9 10 7 8 6 5 4 4 4 4 4 4 4 3 3 3 3 3 3 7 9 9 9 8 8 8 8 8 9 9 9 10 10 10 11
17 15 16 13 14 13 14 15 12 9 7 9 6 5 5 5 5 5 4 4 4 3 3 4 5 4 4 4 8 10 9 8 8 8 8 8 9 9 9 10 10 10 11
15 15 17 15 15 15 14 16 16 15 10 9 6 5 6 7 6 6 7 5 4 3 4 4 5 5 5 4 4 7 8 8 8 8 9 9 9 10 10 10 10 11 11
14 15 16 16 15 14 15 15 15 13 12 11 7 5 3 3 6 6 6 7 6 5 5 5 5 5 5 4 4 6 7 7 7 8 9 9 9 10 10 10 10 11 11
14 15 15 15 15 13 15 15 15 15 11 12 9 6 5 3 3 5 6 7 7 6 5 6 5 5 5 4 2 5 6 7 7 7 8 8 9 9 10 10 10 11 12
10 15 15 14 15 13 15 15 15 17 14 13 10 8 7 7 7 5 5 6 6 6 7 6 6 6 5 4 3 4 4 6 6 6 7 7 8 9 9 10 11 11 12
9 13 14 14 14 14 14 14 15 16 17 16 14 10 8 7 5 6 6 5 5 4 6 6 6 6 5 5 3 1 1 5 5 6 6 6 7 8 9 10 10 11 12
9 12 15 15 15 15 14 14 13 15 14 15 15 13 8 8 6 6 7 7 6 5 6 8 7 7 6 6 3 2 3 3 6 6 5 6 6 7 8 9 10 11 11
8 11 13 15 16 16 15 15 13 15 14 15 15 14 10 8 7 6 6 7 8 8 9 10 8 9 7 6 6 5 4 4 7 7 6 6 6 7 8 9 10 11 11
11 11 13 14 15 15 16 16 14 15 15 15 12 14 13 9 8 7 7 6 6 7 7 7 7 8 10 7 7 6 6 6 10 8 8 7 7 7 7 8 10 11 12
11 12 13 14 15 16 16 16 17 16 18 16 15 16 16 13 10 8 8 7 7 7 6 5 5 7 12 10 8 7 6 7 6 9 9 9 7 7 7 9 10 11 12
11 12 12 13 14 15 16 17 18 17 18 19 18 17 18 12 14 11 10 10 9 9 7 7 6 8 9 10 9 8 6 6 6 8 11 10 8 7 8 10 11 12 13
12 11 12 14 15 15 16 17 18 18 19 19 19 20 19 17 17 13 13 12 10 8 7 7 7 6 5 8 9 8 8 8 7 8 10 10 9 8 10 12 12 12 13
12 12 12 14 15 15 15 16 16 17 18 18 18 19 19 20 20 18 14 14 12 11 10 9 7 6 6 7 8 8 8 8 7 6 7 7 8 9 12 13 13 12 13
11 11 12 13 14 14 13 15 16 16 17 18 18 19 19 21 21 18 15 16 15 13 11 11 9 8 9 8 9 8 7 6 5 5 5 4 4 5 7 9 11 11 12
12 11 11 12 14 12 17 23 20 16 17 19 19 19 18 19 22 27 27 24 23 20 17 14 12 12 13 10 9 8 7 5 4 4 3 4 4 6 7 7 10 13 14
14 13 12 12 14 16 23 25 26 18 18 18 20 18 16 15 19 20 26 28 26 27 24 18 17 15 13 14 13 12 9 6 4 4 2 4 4 6 6 8 14 15 15
14 14 14 14 14 15 21 25 24 21 20 20 20 19 19 18 19 22 20 20 20 20 22 15 11 10 9 11 12 10 8 5 3 3 4 4 4 5 6 7 12 14 14
15 15 14 15 15 16 19 23 25 15 17 20 19 19 20 20 24 29 21 21 20 18 21 20 13 11 14 16 14 9 9 7 5 5 7 5 4 4 5 8 9 13 14
16 16 16 15 16 16 19 22 24 14 16 16 15 17 19 23 24 30 22 20 21 18 17 17 16 15 14 15 18 11 9 8 5 5 7 5 4 3 5 5 6 7 10
Wind_Direction
187 185 184 182 181 173 171 166 161 153 144 135 133 137 132 120 123 126 104 4 339 328 132 128 125 118 107 98 93 89 86 80 72 66 58 52 50 50 52 53 51 46 42
187 185 183 184 182 178 173 169 162 156 149 144 146 147 150 141 135 140 126 91 35 38 100 108 111 110 104 97 93 88 85 81 73 67 61 52 50 49 49 49 48 44 39
189 185 184 184 181 173 165 161 158 155 149 152 156 157 153 151 146 140 136 121 85 56 62 74 81 86 88 89 87 86 83 78 73 67 62 55 51 48 47 46 44 40 36
190 186 184 184 175 170 170 166 164 163 163 165 163 157 150 145 142 140 134 128 107 90 71 59 59 67 73 74 76 78 79 79 77 69 63 57 49 43 42 40 36 32 29
190 187 186 179 173 172 174 170 171 169 167 161 152 145 143 142 139 135 126 116 103 97 92 71 52 45 51 57 69 80 84 83 78 69 62 55 46 41 37 33 28 24 20
190 188 185 177 174 174 176 176 169 169 159 147 132 125 129 141 149 138 130 116 102 92 92 96 88 64 52 56 71 77 80 75 68 59 52 45 38 33 27 22 19 15 13
191 190 184 178 179 181 182 177 165 163 160 155 140 133 135 153 168 159 151 142 124 108 109 119 116 117 91 67 62 56 59 58 53 46 37 31 24 19 14 11 8 6 4
197 194 188 183 184 183 183 182 173 172 165 183 168 151 164 184 196 190 179 170 158 147 138 135 127 129 126 95 65 51 43 42 40 35 28 21 14 10 6 2 359 356 354
207 204 197 189 189 188 188 187 185 179 175 188 210 190 178 183 163 176 193 190 186 178 162 149 142 135 128 109 85 58 40 35 28 23 18 13 8 4 1 359 356 353 351
217 215 208 200 195 195 193 191 190 191 183 183 193 230 263 174 163 162 181 197 200 203 184 167 161 155 148 120 86 59 34 27 20 13 9 4 360 357 356 356 355 354 353
218 221 216 209 202 201 198 192 190 193 194 190 184 176 186 193 201 166 167 178 194 202 193 182 173 171 166 150 99 52 24 12 6 2 358 354 351 350 350 351 351 352 352
214 220 221 216 210 206 202 197 195 196 199 200 194 186 177 176 187 187 164 163 179 178 186 188 184 180 178 170 101 47 11 353 344 344 344 343 342 344 345 346 348 349 349
212 214 215 218 217 214 207 202 201 203 203 204 203 201 199 193 172 184 176 149 157 156 182 193 190 184 183 186 163 98 349 331 320 320 327 330 332 336 339 341 345 346 345
224 217 212 217 220 219 214 208 208 209 209 210 212 207 202 194 185 181 173 155 156 164 186 185 184 189 187 192 171 232 252 280 288 296 304 311 319 325 330 335 339 340 339
239 226 217 218 220 219 216 212 216 211 210 213 214 210 209 197 194 189 176 175 174 181 195 188 180 189 186 190 187 227 248 233 262 275 277 289 301 313 323 329 331 332 331
249 235 225 221 221 219 217 216 220 215 211 214 213 210 210 200 194 188 183 183 194 199 191 167 177 176 178 188 194 225 240 244 252 253 259 273 286 303 315 320 321 322 323
261 245 234 226 222 219 217 218 221 216 213 214 212 212 211 201 196 190 185 182 184 185 171 153 162 163 178 190 196 215 233 237 230 232 252 265 277 291 301 308 311 314 318
278 257 244 235 229 224 220 220 222 221 214 214 212 211 212 201 204 195 191 190 185 185 179 164 166 172 188 196 198 210 222 236 240 233 246 256 264 270 286 297 302 306 310
295 272 252 243 236 230 226 224 225 225 221 219 215 211 210 201 204 198 195 192 186 180 181 166 162 166 180 190 198 207 219 226 228 232 239 243 243 258 282 289 294 299 303
308 287 264 251 243 235 231 228 227 229 227 225 222 216 212 206 205 198 195 193 182 179 180 177 169 172 176 176 192 197 201 210 211 214 226 229 241 266 278 282 287 293 296
315 299 279 261 250 242 234 230 228 229 229 228 226 222 218 212 208 201 197 191 183 182 181 187 188 183 186 177 195 188 195 194 214 215 224 220 244 267 277 277 279 281 289
320 310 291 272 259 247 240 233 229 228 229 230 229 226 222 215 210 207 207 199 193 186 183 186 193 198 197 189 176 174 176 184 205 184 213 248 258 268 268 268 276 284 291
318 312 302 286 270 260 252 244 235 229 230 231 231 227 221 218 209 208 209 207 207 208 198 191 193 197 189 184 174 176 182 184 177 144 196 271 252 248 253 260 269 277 284
309 306 302 294 282 270 260 252 243 235 234 233 231 229 226 220 211 206 202 202 204 208 206 202 205 196 185 170 170 167 167 183 224 220 196 255 260 245 247 258 265 267 271
301 298 294 290 282 276 264 255 247 240 238 235 231 229 227 225 216 208 202 202 200 203 205 196 198 181 168 162 158 151 159 171 207 213 190 219 243 258 263 261 255 255 263
293 292 287 283 278 274 265 255 246 240 241 237 229 226 226 223 218 209 206 203 201 196 185 183 185 180 172 171 173 173 173 182 188 202 180 201 223 232 257 234 242 252 262